{"data":{"norad_id":59282,"epoch":"2026-09-22T21:21:13.148064Z","epoch_age_seconds":54110,"freshness":"FRESH","line1":"1 59282U 24052C   26265.88973551  .00000013  00000+0  69706-4 0  9991","line2":"2 59282  50.0090  88.3868 0006597 143.7155 216.4208 14.27991559128765","mean_motion":14.27991559,"eccentricity":0.0006597,"inclination_deg":50.009,"raan_deg":88.3868,"arg_perigee_deg":143.7155,"mean_anomaly_deg":216.4208,"bstar":6.9706e-5,"rev_number":12876,"period_min":100.8409322117,"perigee_km":793.71770387026,"apogee_km":803.1864955284,"semimajor_km":7176.5890996993,"source":"CELESTRAK","updated_at":"2026-09-23T09:00:19.284111Z"}}